Content
SEND FEEDBACK

Daily
Averages
Monthly
Summary
Chad

AM RIGEK, CHAD


Home > Africa > Chad
Elevation: 968 feet     Latitude: 12 06N     Longitude: 015 00E

WEATHER
 
SELECT A DAY
Number of Records: 181,092;   Date Range: 8/21/96 - 7/11/14
 
SHARE

PRINT THIS DATA

[ ← Previous Day ]
WEATHER ALMANAC - JANUARY 31, 2013
[ Next Day → ]
[ °C ]   °F
Weather ElementAverageHighLow
Temperature71.4 °F82.4 °F (2:00 pm)59 °F (7:00 am)
Dewpoint35.1 °F44.6 °F (12:30 am)21.2 °F (6:30 pm)
Humidity29.2 %52 % (3:00 am)7 % (1:00 pm)
Barometer30.06 in30.12 in (9:00 am)29.94 in (1:00 am)
Wind Speed13.6 mph20.7 mph (11:00 am)
Wind Gust31.1 mph (2:30 pm)
Weather ElementAverage
Visibility2.4 mi
Wind DirectionESE (116.9 °)

Weather ElementTotal
Precipitation---
Cooling Degree Days5.7 (Base 65)
Growing Degree Days20.7 (Base 50)
Averaged from 49 records on January 31, 2013
WEATHER CONDITIONS BREAKOUT
WIND DIRECTION BREAKOUT
WEATHER BY HOUR - JANUARY 31, 2013
[ °C ]   °F
Local TimeTemperatureDewpointHumidityBarometerVisibilityWind DirectionWind SpeedGust SpeedPrecipitationEventsConditions
12:30 AM66.2 °F44.6 °F46 %30.06 in3.7 miNorth (350°)6.9 mph
1:00 AM64.0 °F35.0 °F23 %29.94 in4.0 miNNW (340°)6.9 mphWidespread Dust
1:00 AM66.2 °F44.6 °F46 %30.04 in3.7 miNNW (340°)5.8 mph
1:30 AM64.4 °F44.6 °F49 %30.04 in3.7 miNNW (340°)5.8 mph
2:00 AM64.4 °F44.6 °F49 %30.04 in3.7 miNNW (340°)6.9 mph
2:30 AM64.4 °F44.6 °F49 %30.04 in3.7 miNorth (350°)6.9 mph
3:00 AM62.6 °F44.6 °F52 %30.04 in3.7 miNorth (350°)6.9 mph
3:30 AM62.6 °F42.8 °F48 %30.04 in3.7 miNorth (350°)6.9 mph
4:00 AM62.6 °F42.8 °F48 %30.04 in3.7 miNorth (350°)6.9 mph
5:00 AM62.6 °F42.8 °F48 %30.06 in3.7 miNorth (350°)8.1 mph
5:30 AM62.6 °F42.8 °F48 %30.06 in3.7 miNorth (350°)6.9 mph
6:00 AM60.8 °F42.8 °F52 %30.06 in3.7 miNorth (360°)5.8 mph
6:30 AM60.8 °F42.8 °F52 %30.06 in3.7 miNorth (360°)4.6 mph
7:00 AM59.0 °F35.0 °F28 %30.03 in2.0 miNorth6.9 mphWidespread Dust
7:00 AM60.8 °F42.8 °F52 %30.09 in2.5 miNorth (10°)5.8 mphHaze
7:30 AM62.6 °F42.8 °F48 %30.09 in2.5 miNorth (10°)5.8 mphHaze
8:00 AM66.2 °F41.0 °F40 %30.09 in2.5 miNNE (20°)10.4 mphHaze
8:30 AM68.0 °F42.8 °F40 %30.09 in3.7 miNE (40°)15.0 mph
9:00 AM69.8 °F42.8 °F38 %30.12 in3.7 miNE (50°)17.3 mph
9:30 AM71.6 °F42.8 °F35 %30.12 in3.7 miNE (50°)16.1 mph
10:00 AM73.4 °F44.6 °F36 %30.12 in3.7 miNE (40°)16.1 mph
10:30 AM75.2 °F44.6 °F34 %30.09 in3.7 miNE (40°)16.1 mph
11:00 AM77.0 °F42.8 °F29 %30.09 in2.8 miNE (40°)20.7 mph
11:30 AM78.8 °F44.6 °F30 %30.09 in2.8 miNE (40°)17.3 mph
12:00 PM78.8 °F42.8 °F28 %30.06 in2.5 miNE (40°)19.6 mphSand
12:30 PM80.6 °F44.6 °F28 %30.06 inNE (50°)20.7 mphSand
1:00 PM80.0 °F27.0 °F7 %30.00 in2.0 miNE (40°)19.6 mphBlowing Sand
1:00 PM80.6 °F42.8 °F26 %30.06 in1.6 miNNE (20°)20.7 mphSand
1:30 PM80.6 °F28.4 °F15 %30.04 in1.6 miNE (50°)20.7 mphSand
2:00 PM82.4 °F28.4 °F14 %30.04 in1.6 miNE (40°)18.4 mph29.9 mphSand
2:30 PM80.6 °F28.4 °F15 %30.01 in1.2 miNE (40°)18.4 mph31.1 mphSand
3:00 PM80.6 °F26.6 °F14 %30.01 in0.9 miNE (40°)19.6 mphSand
3:30 PM80.6 °F26.6 °F14 %30.01 in0.9 miNNE (30°)16.1 mphSand
4:00 PM80.6 °F26.6 °F14 %30.01 in0.9 miNE (40°)17.3 mphSand
4:30 PM78.8 °F24.8 °F14 %30.01 in0.7 miNE (40°)17.3 mphSand
5:00 PM78.8 °F23.0 °F13 %30.04 in0.7 miNNE (30°)17.3 mphSand
5:30 PM77.0 °F23.0 °F13 %30.04 in0.6 miNNE (30°)17.3 mphSand
6:00 PM77.0 °F23.0 °F13 %30.04 in0.6 miNNE (30°)17.3 mph
6:30 PM75.2 °F21.2 °F13 %30.06 in0.6 miNNE (30°)18.4 mph
7:00 PM76.0 °F30.0 °F10 %30.01 in1.0 miNE (40°)18.4 mphBlowing Sand
7:00 PM75.2 °F21.2 °F13 %30.06 in0.6 miNE (40°)17.3 mph
7:30 PM75.2 °F21.2 °F13 %30.06 inNE (40°)18.4 mphSand
8:00 PM73.4 °F26.6 °F18 %30.09 in0.4 miNNE (30°)19.6 mphSand
8:30 PM73.4 °F26.6 °F18 %30.09 inNNE (30°)15.0 mph
9:00 PM71.6 °F26.6 °F19 %30.12 inNE (40°)16.1 mph
10:00 PM69.8 °F26.6 °F20 %30.12 inNNE (20°)15.0 mph
10:30 PM69.8 °F26.6 °F20 %30.12 inNNE (30°)12.7 mph
11:00 PM69.8 °F24.8 °F18 %30.12 inNNE (20°)11.5 mph
11:30 PM68.0 °F24.8 °F20 %30.12 in0.6 miNNE (20°)11.5 mph
Hourly data recorded from FTTJ, located miles away from Am Rigek, Chad







STORIES FROM OUR PARTNERS